Temperature
10 11 11 11 11 12 12 12 13 13 13 13 13 13 13 13 13 13 13 14 14 14 14 14 14 14 14 14 14 14 14 14 14 14 14 14 14 14 14 15 15 15 15
10 10 11 11 11 11 12 12 12 13 13 13 13 13 13 13 13 13 13 13 13 13 14 14 14 14 14 14 14 14 14 14 14 14 14 14 14 14 14 14 14 14 14
10 10 11 11 11 11 11 12 12 12 12 12 12 12 12 13 13 13 13 13 13 13 13 14 14 14 14 14 14 14 14 14 14 14 14 14 14 14 14 14 14 14 14
10 10 10 10 11 11 11 11 11 12 12 12 12 12 12 12 12 13 13 13 13 13 13 13 13 14 14 13 13 14 14 14 14 14 14 14 14 14 14 14 14 14 14
10 10 10 10 10 10 11 11 11 11 12 12 12 12 12 12 12 12 12 12 13 13 13 13 13 13 13 13 13 13 13 13 13 14 14 14 14 14 14 14 14 14 14
10 10 10 10 10 10 10 10 11 11 11 11 11 11 12 12 12 12 12 12 12 12 13 13 13 13 13 13 13 13 13 13 13 13 13 13 13 13 13 13 13 13 13
9 9 9 9 10 10 10 10 10 11 11 11 11 11 11 11 11 12 12 12 12 12 12 12 12 12 12 13 13 13 13 13 13 13 13 13 13 13 13 13 13 13 13
9 9 9 9 9 10 10 10 10 10 10 11 11 11 11 11 11 11 11 12 12 12 12 12 12 12 12 12 12 12 12 12 12 12 12 12 12 12 13 13 13 13 13
8 8 9 9 9 9 9 10 10 10 10 10 11 11 11 11 11 11 11 11 11 11 12 12 12 12 12 12 12 12 12 12 12 12 12 12 12 12 12 12 12 12 12
8 8 8 8 8 9 9 9 9 9 10 10 10 10 10 10 11 11 11 11 11 11 11 11 11 12 12 12 12 12 12 12 12 12 12 12 11 11 12 12 12 12 12
7 8 8 8 8 8 8 9 9 9 9 9 9 10 10 10 10 10 10 10 10 11 11 11 11 11 11 11 11 11 11 11 11 11 11 11 11 11 11 11 11 12 12
7 7 7 7 8 8 8 8 8 8 9 9 9 9 9 9 9 9 10 10 10 10 10 10 10 10 11 11 11 11 11 11 11 11 11 11 11 11 11 11 11 11 11
7 7 7 7 7 7 7 7 8 8 8 8 8 8 8 8 9 9 9 9 9 9 10 10 10 10 10 10 10 10 10 10 10 11 11 11 11 10 10 10 10 10 11
7 7 7 7 7 7 7 7 7 7 7 7 7 7 8 8 8 8 8 8 9 9 9 9 9 9 10 10 10 10 10 10 10 10 10 10 10 10 10 10 10 10 10
6 6 6 6 6 6 6 6 6 7 7 7 7 7 7 7 7 7 8 8 8 8 9 9 9 9 9 9 9 9 9 9 9 10 10 10 10 10 10 10 10 9 9
6 6 6 6 6 6 6 6 6 6 6 6 6 6 6 6 7 7 7 7 7 8 8 8 8 8 9 9 9 9 9 9 9 9 9 9 9 9 9 9 9 9 9
6 6 5 5 5 5 5 5 5 5 5 5 6 6 6 6 6 6 6 7 7 7 7 7 8 8 8 8 8 8 8 8 8 8 8 8 8 8 8 8 9 8 8
5 5 5 5 5 5 5 5 5 5 5 5 5 5 5 5 5 6 6 6 6 6 6 7 7 7 7 7 7 7 7 7 7 8 8 8 7 8 8 8 8 8 8
5 5 5 5 5 4 4 4 4 4 4 4 4 4 4 4 5 5 5 5 5 5 6 6 6 6 6 7 7 7 7 7 7 7 7 7 7 7 7 7 7 7 7
5 5 5 4 4 4 4 4 4 4 4 4 4 4 4 4 4 4 4 4 5 5 5 5 5 5 5 6 6 6 6 6 6 6 6 6 6 6 6 6 6 6 7
4 4 4 4 4 4 3 3 4 4 3 3 3 3 3 3 3 4 4 4 4 4 4 4 4 4 5 5 5 5 5 5 5 5 5 5 5 5 5 5 6 6 6
4 4 4 4 3 3 3 3 3 3 3 3 3 3 3 3 3 3 3 3 3 3 3 3 3 3 4 3 3 3 4 4 4 4 5 5 5 5 5 5 5 5 5
4 4 3 3 3 3 3 2 2 2 2 2 2 2 2 2 2 2 2 2 2 2 2 2 2 2 2 2 2 2 2 2 3 3 3 4 4 4 4 4 4 4 4
3 3 3 3 3 2 2 2 2 2 2 2 2 2 2 2 1 2 2 2 2 2 2 2 1 1 1 1 1 1 1 1 1 1 2 2 3 3 3 3 3 3 3
3 3 3 2 2 2 2 2 1 1 1 1 1 1 1 1 1 1 1 1 1 1 1 1 1 0 0 0 0 0 0 0 0 -0 -0 1 2 2 2 2 2 2 2
3 2 2 2 2 1 1 1 1 1 1 1 1 1 1 1 0 0 0 0 0 -0 -0 -0 -0 -0 -0 -0 -0 -0 -0 -1 -1 -1 -1 -1 -0 1 1 1 1 1 1
Wind_Speed
2 4 5 8 10 11 13 13 13 13 13 13 13 13 14 14 15 15 16 15 15 15 15 15 14 14 15 15 15 15 15 15 16 16 15 15 15 15 15 15 14 13 15
1 3 6 8 10 12 13 13 14 14 14 14 13 13 13 14 14 15 15 15 15 15 15 15 14 14 14 14 14 15 15 15 15 16 15 15 15 15 15 15 14 12 14
4 5 6 9 11 12 13 14 14 14 15 15 14 13 13 13 14 14 14 15 15 15 15 14 14 14 14 14 14 15 15 15 15 15 14 13 13 14 14 14 14 14 14
7 6 6 10 11 12 13 14 14 15 15 15 15 14 13 13 13 14 14 14 14 15 14 14 14 14 14 13 14 14 14 15 15 14 13 12 11 13 13 14 14 13 13
8 8 7 10 11 12 13 13 14 15 15 15 15 15 14 13 14 14 14 14 14 14 14 14 14 14 13 13 14 14 14 15 14 14 13 12 11 12 13 13 13 13 13
8 9 8 10 11 12 13 13 14 14 15 15 15 15 15 14 13 13 14 13 13 13 14 14 13 14 14 13 13 14 14 14 14 13 12 11 10 11 12 11 11 11 12
7 9 9 11 11 12 13 13 13 14 14 15 15 15 15 14 14 13 13 13 13 13 13 13 13 13 14 13 13 14 14 13 13 12 11 10 10 11 11 10 10 10 10
8 9 9 10 11 12 13 13 13 14 14 14 15 15 15 15 14 14 13 13 13 13 12 12 12 13 13 13 13 13 13 12 11 11 11 10 10 11 11 11 9 9 9
9 9 10 10 10 11 12 13 13 13 13 14 14 15 15 15 15 14 14 13 12 12 12 12 12 12 12 13 13 13 13 13 12 10 10 9 11 11 11 11 10 9 8
7 8 9 10 10 10 10 11 12 12 13 13 14 14 14 14 14 14 14 14 12 12 12 12 12 12 12 12 12 13 12 12 11 10 9 9 11 11 11 11 11 10 8
6 6 7 8 9 10 9 10 11 11 12 13 13 14 13 13 12 12 14 14 14 12 12 12 12 12 11 11 12 12 11 10 10 9 8 9 10 10 10 10 10 9 8
4 3 5 6 7 8 8 9 10 10 11 12 12 12 12 12 11 11 12 13 14 13 11 11 11 12 11 10 11 11 9 9 9 8 8 8 8 9 9 9 10 9 8
4 4 4 5 7 7 7 8 8 9 10 10 11 11 11 11 11 11 11 11 12 12 11 10 11 11 10 9 9 9 8 8 8 7 8 8 7 7 8 8 8 9 8
5 4 3 5 6 7 7 7 7 8 8 8 10 10 10 9 10 10 10 10 11 10 10 10 9 9 9 9 8 8 8 7 6 6 7 8 7 7 7 7 7 8 8
5 4 3 5 5 6 7 6 7 7 7 8 9 9 10 8 8 8 9 9 10 10 10 9 9 9 8 8 8 7 7 6 6 6 6 7 8 7 7 7 7 7 7
6 5 4 5 5 6 6 6 6 7 8 9 9 10 10 9 8 7 8 8 9 9 9 9 8 7 6 7 7 7 6 5 5 6 6 6 7 7 7 7 7 7 7
7 5 5 5 5 6 6 6 6 7 8 8 8 10 10 9 8 8 7 7 8 9 9 9 8 8 6 6 5 6 6 5 5 6 6 6 7 7 8 8 7 7 7
7 6 5 5 5 5 5 5 6 6 7 7 8 9 10 10 9 8 6 6 8 9 8 6 5 4 4 4 4 3 4 4 4 5 6 7 7 8 8 9 8 8 7
7 7 6 5 5 5 5 5 6 6 6 7 8 8 9 9 9 8 6 6 7 7 7 5 4 3 3 4 4 3 3 3 3 4 5 7 8 8 8 8 9 9 8
6 6 6 6 5 5 5 5 5 5 5 6 7 7 8 8 8 8 7 7 7 5 4 4 4 4 2 3 3 3 3 2 2 3 4 6 7 8 9 8 8 8 8
6 6 6 6 5 4 3 2 2 1 2 3 5 7 7 8 8 8 6 7 6 4 3 4 3 4 4 4 3 3 3 2 1 1 3 4 5 7 8 8 7 7 6
6 6 6 5 5 4 3 2 1 1 1 2 4 6 7 7 7 6 6 6 5 3 3 4 3 2 3 4 2 1 2 2 2 2 2 1 2 5 6 6 7 6 7
7 6 6 5 4 4 3 3 3 2 2 2 2 3 5 6 7 6 6 6 5 4 2 2 3 2 2 3 2 1 1 1 2 2 1 2 2 2 4 6 6 6 6
7 6 6 5 4 4 4 4 4 2 1 0 0 1 3 5 6 6 6 6 5 4 3 3 3 2 1 2 2 1 1 1 1 2 2 2 3 2 2 5 6 5 6
7 6 6 6 5 4 4 4 3 2 1 1 1 1 2 4 5 5 5 5 5 4 4 4 3 2 1 2 2 2 2 2 1 2 3 3 3 2 3 4 5 5 6
6 6 6 6 5 4 4 3 3 3 2 2 1 1 1 2 3 4 4 4 4 4 4 4 3 2 2 2 2 2 2 2 2 2 4 5 5 4 4 4 4 5 5
Wind_Direction
316 352 28 39 51 53 53 52 52 52 52 53 55 57 57 57 58 58 58 58 58 58 58 60 62 63 63 64 65 66 66 70 70 68 67 67 71 75 73 71 70 70 75
64 33 48 51 58 60 58 56 54 52 51 50 53 55 57 58 57 57 56 57 56 56 57 57 59 61 60 62 63 65 65 68 69 67 66 63 67 72 73 71 72 75 77
71 56 54 60 60 60 59 57 55 53 52 50 50 53 56 59 59 57 56 55 54 54 55 56 57 58 58 59 62 64 65 67 66 66 62 58 61 68 73 73 72 73 76
80 65 59 66 63 61 59 57 55 53 51 49 48 49 53 57 58 57 56 55 53 53 54 55 54 55 56 57 61 63 66 67 65 63 58 55 57 65 72 74 72 72 75
75 69 65 69 65 63 61 59 56 54 52 49 48 47 50 55 57 56 54 54 53 52 53 55 55 53 54 57 61 62 66 67 65 62 58 53 55 65 70 70 71 71 74
71 72 73 71 67 65 63 61 58 55 53 52 49 48 49 53 55 54 52 53 55 53 52 53 54 53 53 57 60 62 66 69 63 59 56 52 53 63 68 70 70 72 73
72 70 76 73 69 67 63 61 59 56 54 52 51 49 48 50 52 52 52 53 54 54 53 51 52 51 51 53 57 59 63 68 62 56 51 48 54 60 63 68 72 74 75
81 73 73 75 71 67 64 61 59 58 55 53 51 49 47 45 48 48 49 50 52 51 51 51 50 50 49 50 54 57 60 65 63 55 48 47 54 59 61 62 66 75 75
84 75 67 67 70 69 67 63 61 58 55 53 50 49 46 44 44 45 45 45 50 50 49 50 49 48 47 47 49 54 61 61 57 53 49 46 53 58 59 59 58 68 74
73 71 69 68 67 64 65 64 61 57 54 52 49 48 46 44 42 43 41 41 43 47 47 47 47 45 43 44 46 48 58 57 51 48 44 45 51 55 55 55 55 58 69
78 64 69 69 68 67 66 63 59 56 53 51 48 46 44 43 39 40 41 40 40 43 44 45 45 43 41 42 44 44 54 49 48 44 43 46 50 53 54 53 50 52 63
103 83 64 69 69 69 68 63 59 54 52 51 50 46 46 44 40 39 40 39 37 38 41 42 44 42 39 37 38 40 45 45 45 41 39 43 48 49 53 54 50 48 57
132 105 75 74 76 72 68 65 60 56 53 53 50 46 46 44 41 39 40 36 34 34 34 35 38 37 36 35 35 36 40 45 41 39 38 40 43 45 49 52 47 46 47
130 120 98 81 80 76 73 67 63 58 54 49 46 44 46 45 39 36 37 35 33 31 31 32 32 31 32 32 34 35 35 42 39 35 39 41 40 41 46 47 44 44 41
136 129 115 86 83 84 76 67 61 56 54 50 46 43 48 48 38 34 34 35 32 30 29 28 29 28 26 25 27 31 26 32 37 34 34 39 39 41 44 44 43 44 40
149 140 125 100 92 88 78 69 65 61 56 52 48 44 47 48 42 35 33 31 28 26 27 26 27 26 23 23 22 23 23 25 35 33 36 38 40 41 41 43 43 44 42
156 144 132 117 96 89 83 76 69 63 60 54 49 46 46 45 42 38 34 29 22 22 25 29 28 28 25 20 12 13 21 24 36 37 43 44 43 40 41 46 45 41 37
152 147 141 121 106 94 86 80 74 66 61 53 51 49 45 43 41 41 38 28 21 25 24 26 23 22 14 7 359 359 11 16 38 49 55 51 51 48 44 45 44 40 36
155 150 142 131 122 102 91 85 77 68 61 53 50 48 43 40 38 41 38 28 25 29 26 19 19 21 9 358 346 354 0 5 37 61 57 55 52 49 44 42 43 39 35
152 148 144 138 128 110 96 82 69 59 52 53 51 46 41 38 37 40 36 29 30 33 22 15 14 15 10 351 347 357 344 340 37 67 65 49 49 48 42 38 35 31 29
150 148 147 143 142 129 121 111 94 67 49 43 47 45 40 36 38 40 33 27 30 35 20 13 11 12 9 0 14 359 343 351 29 76 47 41 41 40 36 29 24 21 17
158 156 154 153 152 148 142 137 129 132 81 43 41 39 38 37 36 37 36 28 22 26 28 20 19 3 355 11 19 4 346 340 0 6 355 18 23 24 20 14 12 11 6
165 167 162 160 153 144 128 111 96 74 55 39 27 24 27 32 31 31 31 31 21 18 11 356 1 9 341 341 16 58 49 298 310 303 337 6 11 4 355 354 352 352 352
176 167 158 154 146 139 131 135 134 129 129 198 1 5 13 25 26 25 27 28 22 16 1 343 0 345 330 325 329 352 289 251 280 302 299 335 346 339 335 328 327 329 333
166 162 157 150 146 139 137 142 136 130 132 97 51 30 12 11 17 18 22 21 15 9 0 351 345 340 319 291 304 306 317 315 279 262 276 297 317 303 307 308 312 315 318
159 157 155 152 152 149 147 146 149 150 141 116 66 29 353 350 358 5 10 12 7 0 351 342 341 330 310 296 294 297 277 269 273 276 267 280 290 292 296 283 294 308 307
Height
1552 1552 1551 1551 1551 1551 1550 1549 1549 1548 1547 1546 1545 1545 1544 1543 1542 1542 1541 1541 1540 1540 1539 1539 1539 1539 1539 1539 1539 1539 1538 1538 1538 1538 1538 1538 1538 1538 1537 1537 1537 1537 1537
1551 1551 1551 1551 1551 1550 1550 1549 1549 1548 1547 1546 1546 1545 1544 1544 1543 1542 1542 1541 1541 1541 1540 1540 1540 1539 1540 1540 1540 1540 1539 1539 1539 1539 1539 1539 1539 1539 1539 1539 1539 1539 1539
1550 1551 1551 1551 1550 1550 1550 1549 1548 1548 1547 1546 1546 1545 1545 1544 1544 1543 1542 1542 1541 1541 1541 1541 1540 1540 1540 1540 1540 1540 1540 1540 1540 1540 1540 1540 1540 1540 1540 1540 1540 1540 1540
1550 1550 1550 1550 1550 1550 1549 1549 1548 1548 1547 1546 1546 1545 1545 1544 1544 1543 1543 1542 1542 1542 1541 1541 1541 1541 1541 1541 1541 1541 1541 1541 1541 1541 1541 1541 1541 1541 1541 1541 1541 1541 1541
1549 1550 1550 1550 1550 1549 1549 1548 1548 1547 1547 1546 1546 1545 1545 1545 1544 1543 1543 1543 1542 1542 1542 1542 1542 1542 1542 1542 1542 1542 1542 1542 1542 1542 1542 1542 1542 1542 1542 1542 1542 1542 1542
1549 1549 1549 1549 1549 1549 1549 1548 1548 1547 1547 1546 1546 1545 1545 1544 1544 1543 1543 1543 1543 1543 1542 1542 1542 1542 1543 1543 1543 1542 1542 1542 1542 1542 1542 1542 1542 1542 1542 1542 1542 1542 1542
1548 1549 1549 1549 1549 1549 1548 1548 1547 1547 1546 1546 1546 1545 1545 1544 1544 1544 1543 1543 1543 1543 1543 1543 1543 1543 1543 1543 1543 1543 1543 1543 1543 1543 1543 1543 1543 1543 1542 1542 1543 1543 1543
1548 1548 1548 1548 1548 1548 1548 1547 1547 1546 1546 1545 1545 1545 1544 1544 1543 1543 1543 1543 1543 1543 1542 1542 1542 1542 1543 1543 1543 1543 1543 1543 1543 1543 1543 1543 1543 1543 1542 1542 1542 1542 1543
1547 1548 1548 1548 1547 1547 1547 1547 1546 1546 1545 1545 1545 1544 1543 1543 1543 1543 1542 1542 1542 1542 1542 1542 1542 1542 1542 1542 1542 1543 1543 1543 1543 1543 1543 1543 1543 1543 1542 1542 1542 1542 1542
1547 1547 1547 1547 1547 1546 1546 1546 1546 1545 1545 1544 1544 1543 1543 1542 1542 1542 1542 1542 1542 1542 1541 1541 1541 1541 1541 1542 1542 1542 1542 1542 1543 1543 1543 1543 1543 1542 1542 1542 1541 1541 1541
1546 1546 1546 1546 1546 1546 1546 1545 1545 1545 1544 1543 1543 1543 1542 1542 1541 1541 1541 1541 1541 1541 1541 1541 1540 1541 1541 1541 1541 1541 1541 1542 1542 1542 1542 1542 1542 1542 1541 1541 1541 1541 1541
1544 1545 1545 1545 1545 1545 1545 1545 1544 1544 1543 1543 1542 1542 1541 1541 1540 1540 1540 1540 1539 1539 1540 1540 1540 1540 1540 1540 1540 1540 1540 1541 1541 1541 1541 1541 1541 1541 1540 1540 1540 1540 1540
1543 1544 1544 1544 1544 1544 1544 1544 1543 1543 1542 1542 1542 1541 1540 1540 1540 1539 1539 1538 1538 1538 1538 1538 1538 1538 1538 1539 1539 1539 1539 1539 1539 1539 1539 1539 1539 1539 1539 1539 1539 1539 1539
1541 1542 1543 1543 1543 1543 1543 1543 1542 1542 1541 1541 1540 1540 1539 1539 1539 1538 1538 1537 1537 1537 1537 1537 1537 1537 1537 1537 1537 1537 1537 1537 1537 1538 1538 1538 1538 1538 1538 1538 1538 1538 1538
1539 1540 1541 1542 1542 1542 1542 1542 1541 1541 1540 1540 1540 1539 1539 1538 1537 1537 1537 1536 1536 1536 1535 1535 1535 1535 1535 1535 1535 1535 1535 1535 1536 1536 1536 1536 1536 1536 1536 1536 1536 1536 1536
1538 1539 1540 1541 1541 1541 1541 1541 1540 1540 1540 1539 1539 1538 1538 1537 1536 1536 1536 1535 1535 1534 1534 1533 1533 1533 1533 1533 1533 1533 1533 1533 1533 1533 1534 1534 1534 1534 1534 1534 1534 1534 1534
1536 1538 1538 1539 1540 1540 1540 1540 1540 1539 1539 1538 1538 1537 1536 1536 1535 1535 1534 1533 1533 1533 1532 1532 1531 1531 1531 1531 1531 1531 1531 1531 1531 1531 1531 1532 1532 1532 1532 1532 1532 1532 1532
1535 1536 1537 1538 1538 1539 1539 1539 1539 1538 1538 1538 1537 1536 1535 1535 1534 1533 1533 1532 1531 1531 1530 1530 1529 1529 1529 1528 1528 1528 1528 1528 1528 1529 1529 1529 1529 1529 1529 1530 1530 1530 1530
1533 1534 1535 1536 1536 1537 1537 1538 1538 1537 1537 1536 1536 1535 1534 1534 1533 1532 1531 1531 1530 1529 1528 1528 1527 1527 1526 1526 1526 1526 1526 1526 1526 1526 1526 1527 1527 1527 1527 1527 1527 1527 1527
1531 1532 1533 1534 1535 1535 1536 1536 1536 1536 1536 1535 1534 1534 1533 1533 1531 1530 1530 1529 1529 1528 1527 1526 1525 1525 1524 1524 1523 1523 1523 1523 1523 1523 1524 1524 1524 1524 1524 1525 1525 1525 1525
1528 1530 1530 1532 1532 1533 1533 1533 1533 1533 1533 1533 1533 1532 1532 1531 1530 1529 1528 1527 1527 1526 1525 1524 1523 1522 1522 1521 1521 1520 1520 1520 1521 1521 1521 1522 1522 1522 1522 1522 1522 1522 1522
1525 1527 1528 1529 1530 1531 1531 1532 1532 1532 1531 1531 1531 1531 1530 1529 1528 1528 1527 1526 1525 1524 1524 1523 1522 1521 1520 1520 1519 1518 1518 1519 1518 1518 1518 1518 1519 1519 1519 1519 1519 1518 1518
1522 1524 1525 1527 1528 1529 1529 1530 1530 1530 1529 1529 1529 1529 1528 1528 1527 1526 1525 1524 1523 1522 1521 1521 1520 1519 1518 1518 1518 1518 1517 1516 1514 1514 1514 1515 1515 1515 1515 1515 1515 1515 1515
1519 1522 1523 1524 1525 1526 1527 1527 1527 1527 1527 1527 1527 1527 1526 1526 1525 1524 1523 1522 1521 1520 1519 1519 1518 1517 1517 1516 1516 1515 1516 1514 1514 1511 1511 1511 1511 1511 1512 1512 1511 1511 1511
1517 1519 1521 1522 1523 1524 1525 1525 1525 1525 1525 1525 1525 1524 1524 1523 1523 1522 1521 1520 1519 1518 1517 1516 1515 1515 1514 1513 1513 1512 1512 1512 1511 1509 1507 1507 1507 1507 1507 1507 1507 1507 1507
1514 1516 1518 1519 1520 1521 1522 1523 1523 1523 1523 1522 1522 1522 1521 1521 1520 1520 1519 1518 1517 1515 1514 1513 1512 1512 1511 1510 1510 1509 1508 1508 1507 1506 1504 1502 1502 1502 1502 1503 1503 1502 1502